Temp
19 19 19 20 19 18 19 19 20 20 19 19 19 20 21 21 21 21 21 20 20 20 20 19 19 19 18 18 18 18 17 17 17 16 16 16 16 16 17 17 16 16 17
19 20 18 19 20 19 19 20 20 20 19 20 20 20 20 21 20 20 22 21 21 20 20 20 19 19 18 17 18 18 18 17 17 17 16 16 16 16 16 17 16 17 16
18 18 18 19 19 19 18 19 19 19 19 20 19 20 20 20 20 21 21 21 21 20 20 19 19 19 18 18 17 18 18 17 17 17 17 16 16 16 17 17 16 17 17
18 18 18 19 19 19 19 19 18 19 19 19 20 20 20 20 20 20 21 20 20 19 19 19 19 19 18 18 17 17 16 16 16 16 17 16 16 16 16 16 16 17 17
18 18 19 19 19 19 19 19 19 19 20 20 20 20 21 21 21 21 20 20 20 20 19 19 19 19 19 18 17 17 16 16 15 15 16 16 16 16 16 16 17 17 17
19 18 19 19 18 19 20 20 19 20 19 19 19 21 21 21 21 21 21 21 20 20 20 20 19 19 19 19 18 17 17 16 15 15 15 16 16 16 16 16 16 16 16
19 18 19 19 19 19 19 18 19 19 19 19 20 21 22 22 22 22 22 21 21 21 21 19 19 18 18 18 18 18 17 16 16 17 16 15 16 16 16 16 16 16 16
19 18 19 19 19 19 19 18 18 19 19 20 20 21 22 22 22 22 22 21 20 20 20 19 19 19 19 19 19 18 18 17 17 16 15 15 15 15 16 16 16 16 16
19 19 18 19 19 19 19 18 19 19 19 20 20 19 20 21 21 22 21 22 20 21 21 20 19 19 19 18 18 18 18 17 17 17 16 15 15 15 15 15 16 16 16
19 19 19 18 20 19 19 19 18 19 19 19 19 20 19 19 22 21 21 21 21 21 21 21 21 20 19 18 18 18 18 18 17 17 15 15 15 15 15 15 15 15 15
20 19 19 18 19 18 18 19 18 18 19 20 21 19 19 19 20 21 22 22 20 21 21 20 21 21 20 19 19 18 18 18 17 17 17 16 16 16 15 15 15 15 15
20 20 19 19 18 18 18 18 17 17 18 19 19 18 19 19 19 20 21 22 22 23 22 21 21 21 20 20 19 18 18 18 18 18 17 17 17 16 16 16 15 15 15
22 20 19 18 19 18 18 18 17 17 17 18 18 18 19 20 20 20 21 22 22 23 22 22 21 20 20 20 19 18 18 18 18 18 18 17 17 17 17 17 16 16 15
21 21 19 19 18 17 18 18 17 17 18 18 17 18 19 20 19 19 19 20 21 23 23 22 21 20 20 19 18 18 18 18 18 18 18 18 18 18 18 17 16 16 16
20 20 19 18 17 17 19 18 18 17 18 17 18 17 18 19 19 19 19 19 20 21 23 20 21 20 19 19 18 18 18 17 18 18 18 18 18 18 18 17 17 16 16
20 20 18 18 17 17 19 20 17 18 18 17 18 18 18 19 18 18 18 18 19 19 20 22 21 20 18 18 18 18 18 17 18 18 18 18 18 18 18 18 17 17 17
19 19 18 18 17 19 19 20 18 17 19 17 17 16 16 17 17 18 18 18 18 18 19 20 20 18 17 16 17 17 17 18 18 18 18 18 18 18 18 18 17 17 17
19 19 18 18 17 19 18 19 19 17 17 16 16 16 16 17 16 16 17 17 17 16 16 17 17 17 17 17 16 16 17 19 18 18 17 17 17 18 18 17 17 17 17
19 19 18 18 17 17 19 19 18 16 16 16 16 15 16 15 15 16 16 15 17 16 16 16 16 17 17 17 17 17 17 17 18 18 18 18 18 17 17 17 17 17 18
19 19 18 18 17 16 16 16 17 16 16 16 16 15 15 15 15 14 15 14 15 14 16 16 17 18 18 17 17 17 18 18 18 19 17 17 18 17 18 18 18 18 18
20 19 19 19 17 16 17 17 16 16 15 16 15 15 15 15 16 16 15 15 15 15 16 16 17 18 18 17 17 17 17 17 17 17 17 18 17 18 17 17 18 17 17
19 20 22 21 19 17 18 17 16 16 15 15 15 15 15 15 16 16 16 15 15 15 15 14 15 16 15 15 16 16 16 17 17 17 16 17 17 18 18 17 16 17 17
18 18 19 18 18 17 16 17 17 16 16 16 15 15 15 16 15 14 14 14 14 14 14 14 14 13 14 13 13 14 14 14 15 16 15 16 17 17 18 18 17 17 17
18 18 18 17 16 17 16 16 16 16 16 16 15 15 14 14 14 14 14 13 14 13 13 13 13 13 12 12 12 12 12 13 14 15 15 15 16 17 18 17 17 17 16
16 16 15 16 16 16 15 15 15 16 15 15 14 14 14 14 13 13 14 13 13 14 14 14 13 14 14 14 14 14 12 14 16 17 16 16 16 17 17 17 16 16 16
15 15 16 15 15 16 15 14 15 14 14 14 14 14 14 14 13 13 13 13 13 14 14 13 12 13 13 13 13 13 13 13 15 16 17 16 16 16 16 17 16 15 15
Height
1570 1570 1571 1572 1571 1570 1570 1571 1572 1573 1572 1572 1572 1572 1572 1571 1570 1570 1568 1567 1569 1570 1570 1570 1570 1571 1572 1573 1574 1574 1575 1576 1577 1579 1581 1582 1583 1586 1588 1590 1592 1594 1596
1569 1570 1570 1570 1570 1570 1569 1571 1571 1571 1570 1570 1570 1570 1569 1569 1567 1569 1569 1567 1567 1568 1568 1568 1568 1569 1570 1571 1572 1573 1575 1576 1578 1579 1581 1583 1584 1586 1589 1591 1593 1595 1597
1566 1567 1568 1569 1569 1568 1568 1569 1569 1568 1568 1568 1567 1567 1567 1566 1567 1567 1568 1568 1565 1564 1564 1565 1565 1567 1567 1568 1568 1571 1574 1576 1577 1579 1580 1582 1584 1586 1589 1591 1593 1594 1596
1564 1565 1566 1567 1568 1566 1567 1566 1564 1566 1565 1565 1564 1564 1564 1564 1563 1564 1565 1564 1564 1559 1560 1562 1563 1564 1565 1566 1567 1569 1570 1574 1575 1578 1579 1581 1583 1585 1587 1590 1592 1594 1596
1564 1563 1564 1564 1562 1564 1564 1564 1563 1564 1565 1564 1562 1562 1562 1561 1560 1561 1560 1561 1561 1561 1558 1557 1559 1560 1561 1563 1565 1566 1566 1565 1568 1571 1575 1579 1581 1583 1586 1589 1591 1593 1595
1562 1562 1563 1563 1562 1561 1562 1563 1562 1563 1561 1561 1560 1559 1558 1558 1558 1558 1559 1559 1558 1558 1558 1555 1556 1556 1555 1559 1561 1563 1563 1564 1562 1568 1570 1573 1578 1582 1585 1587 1590 1592 1594
1562 1560 1561 1562 1561 1561 1560 1560 1560 1558 1559 1557 1557 1557 1555 1555 1555 1555 1556 1556 1557 1557 1556 1555 1554 1554 1551 1556 1557 1559 1559 1560 1562 1564 1566 1567 1573 1578 1582 1585 1588 1590 1593
1560 1560 1559 1561 1560 1559 1558 1558 1558 1556 1557 1557 1557 1556 1553 1552 1553 1553 1554 1554 1554 1555 1555 1553 1552 1553 1554 1554 1554 1555 1556 1556 1556 1559 1561 1563 1567 1572 1577 1582 1585 1588 1591
1559 1559 1558 1557 1557 1557 1557 1556 1558 1557 1556 1557 1556 1556 1553 1553 1552 1551 1552 1553 1552 1553 1553 1552 1552 1552 1552 1553 1552 1552 1552 1552 1552 1553 1553 1554 1561 1566 1572 1577 1582 1585 1587
1556 1556 1556 1555 1554 1555 1556 1556 1556 1555 1554 1555 1553 1553 1553 1554 1552 1552 1551 1551 1551 1550 1552 1551 1551 1550 1550 1550 1551 1550 1550 1550 1550 1549 1550 1546 1555 1560 1564 1569 1575 1578 1581
1554 1555 1555 1554 1554 1555 1553 1552 1553 1553 1553 1554 1553 1551 1551 1551 1552 1551 1549 1549 1549 1549 1548 1550 1550 1551 1549 1550 1550 1549 1549 1548 1548 1547 1548 1548 1554 1557 1558 1561 1565 1570 1573
1553 1553 1554 1553 1553 1553 1553 1552 1551 1550 1550 1550 1550 1550 1551 1551 1550 1550 1549 1547 1547 1547 1548 1549 1549 1549 1549 1549 1549 1548 1548 1547 1547 1547 1548 1550 1553 1555 1557 1560 1562 1564 1568
1554 1551 1551 1552 1553 1551 1549 1548 1548 1548 1549 1549 1548 1548 1550 1550 1550 1550 1549 1547 1547 1547 1547 1548 1548 1548 1548 1549 1546 1547 1547 1547 1546 1546 1547 1549 1550 1552 1554 1555 1558 1561 1563
1551 1552 1551 1550 1549 1547 1546 1545 1546 1547 1549 1548 1548 1548 1549 1549 1549 1549 1549 1548 1547 1545 1545 1546 1546 1547 1548 1544 1546 1546 1545 1546 1546 1546 1547 1548 1549 1550 1551 1551 1553 1555 1557
1548 1549 1549 1547 1547 1546 1544 1544 1544 1545 1545 1546 1548 1547 1547 1548 1548 1547 1547 1546 1546 1545 1543 1543 1545 1545 1546 1545 1545 1546 1544 1544 1545 1545 1545 1545 1546 1546 1547 1548 1548 1549 1550
1547 1548 1547 1548 1546 1544 1543 1543 1545 1543 1543 1545 1547 1545 1545 1547 1546 1546 1545 1545 1545 1545 1544 1543 1544 1543 1542 1543 1544 1544 1544 1542 1542 1542 1542 1542 1542 1542 1541 1542 1543 1545 1546
1543 1544 1544 1544 1543 1541 1541 1541 1541 1541 1541 1542 1543 1543 1543 1543 1545 1545 1543 1543 1543 1543 1543 1542 1542 1540 1539 1540 1541 1540 1540 1540 1539 1538 1538 1538 1538 1538 1538 1537 1538 1540 1542
1538 1537 1539 1539 1539 1538 1539 1539 1539 1541 1539 1539 1541 1542 1542 1542 1541 1542 1542 1540 1540 1539 1539 1539 1539 1539 1538 1538 1537 1537 1537 1537 1534 1534 1534 1534 1534 1534 1533 1532 1533 1535 1536
1534 1535 1536 1537 1537 1537 1535 1535 1537 1538 1538 1540 1539 1539 1540 1539 1538 1540 1538 1537 1539 1538 1538 1537 1536 1536 1536 1534 1534 1533 1533 1533 1532 1532 1532 1532 1531 1531 1531 1531 1531 1531 1532
1531 1532 1533 1535 1535 1534 1535 1534 1533 1534 1536 1538 1539 1538 1538 1538 1536 1535 1536 1535 1534 1533 1535 1535 1534 1533 1533 1532 1532 1531 1531 1531 1531 1531 1529 1529 1529 1529 1529 1529 1528 1528 1527
1520 1523 1527 1530 1532 1532 1531 1528 1531 1531 1532 1535 1536 1535 1535 1535 1533 1533 1532 1533 1531 1532 1532 1531 1532 1531 1530 1529 1529 1528 1528 1528 1528 1527 1527 1528 1526 1526 1525 1524 1524 1525 1525
1510 1512 1511 1517 1524 1526 1526 1527 1528 1528 1529 1530 1531 1532 1532 1531 1530 1529 1530 1529 1529 1528 1528 1527 1527 1528 1528 1527 1527 1526 1525 1526 1523 1522 1523 1524 1524 1523 1523 1520 1520 1520 1522
1514 1509 1509 1508 1512 1516 1518 1521 1523 1526 1528 1528 1528 1530 1529 1531 1528 1528 1527 1526 1526 1527 1526 1526 1523 1524 1524 1525 1523 1521 1523 1522 1521 1520 1520 1520 1521 1519 1519 1518 1517 1515 1516
1507 1506 1504 1504 1506 1508 1510 1512 1516 1518 1522 1525 1524 1525 1526 1527 1528 1529 1529 1527 1526 1525 1524 1524 1524 1522 1522 1521 1519 1519 1518 1518 1516 1515 1516 1516 1516 1516 1516 1513 1514 1514 1512
1502 1499 1499 1498 1498 1502 1504 1506 1509 1511 1516 1520 1519 1518 1519 1525 1524 1524 1524 1526 1526 1526 1525 1523 1521 1519 1517 1517 1515 1514 1515 1518 1515 1514 1513 1514 1513 1512 1512 1511 1508 1509 1509
1491 1491 1491 1492 1493 1494 1495 1499 1505 1510 1512 1514 1516 1516 1512 1517 1521 1523 1522 1521 1523 1524 1523 1523 1519 1516 1515 1514 1513 1512 1511 1513 1514 1513 1511 1511 1510 1510 1510 1509 1505 1505 1505
Wind_Speed
4 4 3 3 4 5 2 7 5 6 6 6 7 8 7 9 8 7 12 11 10 11 9 9 8 5 6 5 6 6 6 8 11 13 13 15 17 20 18 18 17 17 16
5 4 5 4 4 5 9 7 7 7 7 8 8 9 11 13 11 9 9 14 14 13 11 12 12 9 9 9 9 9 9 9 10 12 13 15 16 20 18 17 17 17 18
4 8 4 7 5 10 5 7 10 10 8 10 12 11 10 9 10 10 10 10 13 16 10 10 12 12 13 13 11 12 11 11 10 11 14 14 16 17 20 18 17 16 18
10 9 7 8 8 9 9 8 8 10 9 10 10 12 12 13 12 12 10 11 13 18 11 10 11 10 13 14 14 12 13 11 10 11 12 17 16 18 19 21 19 18 18
8 8 8 9 8 9 7 6 8 8 9 9 9 9 11 9 7 7 8 8 11 11 13 10 13 11 12 13 15 15 18 20 22 21 16 16 19 19 19 19 19 18 18
8 10 8 11 12 10 7 7 9 8 9 8 8 11 11 9 10 8 8 8 8 11 8 13 13 11 8 8 11 17 19 21 22 23 23 20 20 21 21 20 20 19 18
7 8 5 6 6 7 9 7 8 9 7 10 11 9 11 11 8 8 6 6 5 4 5 11 16 13 2 5 7 13 18 21 20 19 22 25 23 22 21 21 22 20 19
6 6 7 5 6 9 10 8 11 9 10 12 8 9 10 1 4 5 5 5 2 3 3 4 1 5 6 6 6 8 11 19 22 22 24 21 29 25 23 23 22 22 21
5 7 7 8 10 9 6 8 7 10 8 7 10 8 5 2 6 5 5 5 3 3 3 5 2 6 6 6 9 9 9 12 15 18 25 26 26 35 28 25 23 23 22
7 8 7 9 7 3 10 8 8 7 8 8 10 10 10 9 7 3 4 5 5 2 4 5 6 5 4 4 8 11 9 10 11 13 14 24 27 33 36 33 30 28 29
9 9 8 8 7 6 11 8 7 8 9 8 8 6 7 7 8 6 7 9 3 6 2 3 5 5 7 5 8 6 6 7 7 5 7 9 26 21 33 36 39 39 39
10 7 11 7 8 7 7 7 8 6 7 11 7 6 4 4 4 5 10 8 9 5 4 5 4 5 6 5 7 9 6 5 4 4 7 10 16 18 20 27 34 36 35
7 9 8 7 6 6 9 8 7 6 6 7 6 3 3 5 4 6 7 9 7 7 6 5 4 3 4 3 8 6 2 1 3 3 5 7 10 14 17 21 26 30 31
8 9 9 8 8 7 7 7 4 4 6 3 4 6 3 4 5 5 5 5 7 7 6 4 3 1 1 4 8 4 4 2 4 4 3 3 4 6 9 15 21 25 29
10 11 11 8 8 7 7 6 2 6 8 4 5 5 3 5 5 4 4 4 5 7 5 4 1 5 4 5 4 3 9 7 6 4 4 4 5 7 9 11 14 17 20
11 8 10 9 9 8 8 5 4 7 7 4 2 11 4 5 3 3 3 3 4 6 8 5 3 3 5 7 7 6 8 11 10 10 9 9 9 9 10 13 14 12 14
14 16 14 12 11 9 9 7 9 10 8 5 6 4 4 8 2 3 3 3 3 5 7 7 6 7 8 4 9 8 10 12 16 15 14 11 12 11 12 15 17 15 14
19 15 15 13 12 10 10 9 6 8 7 7 6 7 4 2 3 5 1 7 6 6 5 7 8 9 7 7 8 9 6 8 7 10 8 10 13 12 10 11 12 14 14
18 15 13 14 12 12 12 11 10 10 8 8 8 7 6 6 4 7 7 4 3 4 5 7 8 7 8 9 7 9 7 8 10 14 15 15 14 12 8 6 8 14 13
19 15 14 14 14 13 13 12 12 11 10 9 8 7 7 7 6 6 4 5 4 3 4 7 7 7 7 6 7 7 7 8 7 8 6 9 13 12 11 13 14 12 12
21 13 12 15 18 17 16 17 14 12 12 10 9 8 7 11 11 8 5 6 11 6 5 5 7 7 6 5 4 6 6 8 10 11 9 10 10 9 11 12 13 14 12
18 14 12 23 24 22 18 23 17 13 12 11 10 9 10 15 15 12 10 9 12 9 6 4 4 7 8 5 5 8 6 8 6 4 6 11 12 13 11 15 13 13 14
22 20 23 26 28 25 22 24 23 14 13 12 11 10 9 10 16 9 10 9 11 9 8 9 7 6 9 7 10 9 8 10 8 11 10 11 10 13 11 18 18 18 22
31 36 36 33 27 26 27 26 24 19 17 13 11 8 9 9 8 10 9 9 7 11 11 6 7 12 10 12 11 9 12 11 12 10 9 9 8 11 11 14 17 20 16
26 31 29 29 29 28 30 32 24 23 19 17 15 10 7 10 13 17 15 11 9 10 11 14 16 12 11 12 13 13 10 11 12 9 10 9 7 9 10 11 13 13 13
27 28 29 30 30 27 29 24 24 16 18 17 11 7 6 9 15 16 11 6 9 10 9 12 13 12 13 13 9 10 10 10 11 11 10 7 7 7 9 9 14 10 15
Wind_Direction
156 147 193 185 230 218 97 289 245 263 266 262 249 258 260 280 288 298 294 320 302 289 292 286 281 281 270 237 220 201 184 172 176 181 175 179 179 178 179 181 179 179 178
174 206 203 216 279 249 223 238 255 255 261 261 269 256 256 271 271 276 272 289 290 297 298 279 271 259 260 255 231 218 203 192 184 193 196 189 184 189 192 186 187 185 184
237 208 220 242 240 260 277 257 252 254 252 251 250 257 269 270 271 259 266 260 287 282 291 291 267 257 250 245 240 225 215 205 200 196 204 204 193 194 199 196 194 193 191
219 232 227 242 237 250 261 250 260 255 277 267 277 270 270 279 272 264 264 259 264 279 282 294 287 277 255 246 239 224 207 213 218 216 214 214 207 199 200 197 199 195 195
231 236 246 275 251 259 276 252 262 260 265 260 263 270 267 274 272 273 268 271 272 265 282 300 290 283 270 248 241 229 228 220 213 204 208 218 214 208 201 201 198 199 200
231 250 238 231 257 258 250 252 247 249 256 258 272 277 277 268 267 265 269 277 282 270 277 271 274 279 236 239 249 238 239 241 222 218 214 206 214 213 206 206 206 202 202
233 246 240 252 259 256 243 247 267 265 257 282 293 287 272 248 242 251 256 275 265 271 257 253 253 245 283 246 271 248 244 245 243 229 216 217 210 213 212 211 210 209 205
231 244 243 253 274 243 259 263 266 258 264 279 289 288 285 30 231 237 217 244 235 256 291 316 272 203 259 290 273 271 255 246 251 247 234 227 213 212 216 216 216 215 214
242 268 269 261 266 274 285 290 287 285 277 271 274 273 302 294 315 194 203 202 240 237 275 295 262 214 226 211 265 285 256 248 252 251 246 235 222 207 208 221 224 224 225
229 238 260 277 280 255 258 277 283 260 281 280 278 249 252 270 290 254 189 233 238 156 235 245 248 274 243 226 224 232 271 264 265 261 250 231 208 214 211 207 215 223 223
246 241 258 260 269 266 258 268 275 270 257 273 277 267 266 241 254 254 279 232 277 246 215 270 246 257 258 241 239 274 277 277 266 220 205 227 204 222 219 217 214 217 219
265 273 240 254 266 269 291 278 266 273 256 253 246 264 269 272 296 271 268 284 289 298 271 280 251 262 267 261 232 249 285 275 245 222 214 210 217 227 223 225 226 229 224
246 250 276 259 275 288 266 272 270 255 260 262 258 230 263 281 293 295 292 291 303 286 278 265 239 284 261 220 239 271 264 152 127 147 193 210 224 233 238 236 234 232 231
247 250 261 244 254 257 282 287 277 278 265 261 259 240 227 274 278 283 284 296 300 281 243 213 276 218 193 205 270 259 227 195 151 138 145 168 204 234 244 246 240 238 234
238 230 247 241 247 260 277 252 220 251 242 272 274 286 255 274 282 278 286 280 279 288 284 162 237 222 233 299 282 238 252 225 224 234 242 245 250 259 258 252 244 241 241
247 244 255 249 252 265 279 263 244 277 251 228 273 255 251 262 273 280 270 275 272 269 273 281 268 269 249 247 284 262 262 259 253 258 266 260 258 256 261 255 245 240 238
238 232 240 233 240 257 265 247 212 227 254 227 210 241 234 231 239 274 273 274 269 273 265 264 270 286 295 294 254 269 259 264 261 256 254 267 255 262 272 255 235 236 245
237 233 241 229 238 251 255 250 230 242 223 211 212 212 214 244 264 296 293 278 257 264 259 275 273 277 283 266 274 282 283 250 272 237 254 277 253 271 280 240 227 231 245
234 234 247 243 240 244 249 248 234 222 224 220 216 219 215 231 235 234 249 242 263 277 289 280 270 277 270 269 263 287 276 270 250 257 265 274 254 262 259 230 249 240 241
242 238 239 248 248 244 241 241 234 227 223 226 226 227 229 235 230 242 262 273 290 271 281 300 284 280 278 265 265 269 265 271 262 241 249 268 285 272 267 277 272 261 245
229 235 265 260 260 247 241 236 227 225 217 217 229 239 258 233 248 251 207 232 244 286 270 277 281 279 274 239 272 278 277 266 272 271 252 269 271 277 266 270 275 264 239
230 223 231 281 272 247 240 241 227 217 219 220 228 247 254 266 266 261 261 252 260 270 258 255 264 285 298 284 289 274 280 284 268 207 245 272 262 262 267 259 253 268 262
224 248 270 271 257 249 231 239 243 219 229 230 234 243 250 273 267 276 277 281 274 272 273 275 266 263 272 276 265 269 267 266 251 252 280 276 271 261 250 259 261 278 268
249 266 277 269 253 245 233 227 234 233 213 228 224 241 261 250 257 254 256 279 282 290 304 317 293 275 269 262 252 260 257 267 269 284 247 260 270 263 246 267 279 285 272
277 274 269 266 255 243 232 223 234 227 214 221 223 219 235 274 262 259 251 260 260 265 277 278 290 290 285 270 268 265 261 268 271 269 234 254 274 262 276 266 282 276 284
278 263 266 259 260 245 230 221 221 204 212 205 216 235 256 273 259 271 262 254 264 271 270 276 295 307 315 323 297 295 254 251 266 272 259 229 266 279 284 270 242 277 295